Home   Weather   Madrid   Past weeks
Flag for Spain

Past Weather in Madrid, Spain — Yesterday and Last 2 Weeks

Now
84 °F

Passing clouds.


Feels Like: 83 °F
Forecast: 100 / 74 °F
Wind: 8 mph from Southeast

Location: Madrid / Getafe

Current Time: Jul 22, 2019 at 2:17:41 am

Latest Report: Jul 22, 2019 at 1:00 am


Visibility: N/A

Pressure: 30.18 "Hg (28.02 "Hg at 658m altitude)

Humidity: 37%

Dew Point: 55 °F

Location of MadridLocation

Past Weather in Madrid — Graph

°F

Madrid Temperature Yesterday

Maximum temperature yesterday: 102 °F (at 7:00 pm)
Minimum temperature yesterday: 81 °F (at 9:00 am)
Average temperature yesterday: 93 °F

High & Low Weather Summary for the Past Weeks

 TemperatureHumidityPressure
High104 °F (Jul 12, 5:00 pm)65% (Jul 18, 7:00 am)30.18 "Hg (Jul 18, 7:00 am)
Low64 °F (Jul 8, 7:00 am)12% (Jul 11, 9:00 pm)29.83 "Hg (Jul 7, 8:00 pm)
Average87 °F30%29.98 "Hg
* Reported Jul 7 12:00 pm — Jul 22 1:00 am, Madrid. Weather by CustomWeather, © 2019

Note: Actual official high and low records may vary slightly from our data, if they occured in-between our weather recording intervals... More about our weather records

Advertising

Madrid Weather History for the Previous 24 Hours

Scroll right to see more
 ConditionsComfort  
Time TempWeatherWind HumidityBarometerVisibility
1:00 am
Mon, Jul 22
84 °FPassing clouds.8 mph37%30.18 "HgN/A
12:00 am86 °FPassing clouds.9 mph38%30.15 "HgN/A
11:00 pm
Sun, Jul 21
90 °FPassing clouds.8 mph36%30.12 "HgN/A
10:00 pm91 °FScattered showers. Passing clouds.6 mph30%30.09 "HgN/A
9:00 pm93 °FThundershowers. Scattered clouds.10 mph26%30.07 "HgN/A
8:37 pm91 °FThundershowers. Scattered clouds.9 mph34%30.07 "HgN/A
8:04 pm90 °FSprinkles. Scattered clouds.15 mph38%30.04 "Hg5 mi
7:40 pm102 °FScattered showers. Passing clouds.8 mph20%30.04 "HgN/A
7:00 pm102 °FPassing clouds.7 mph18%30.04 "HgN/A
6:00 pm100 °FPassing clouds.6 mph20%30.07 "HgN/A
5:00 pm100 °FSunny.5 mph20%30.07 "Hg10 mi
4:00 pm99 °FSunny.3 mph21%30.09 "Hg10 mi
3:00 pm99 °FSunny.5 mph18%30.09 "Hg10 mi
2:00 pm95 °FSunny.5 mph25%30.12 "Hg10 mi
1:00 pm91 °FPassing clouds.6 mph30%30.12 "HgN/A
12:00 pm88 °FSunny.2 mph31%30.12 "Hg10 mi
11:00 am84 °FPassing clouds.6 mph35%30.12 "HgN/A
10:00 am82 °FPassing clouds.6 mph37%30.12 "HgN/A
9:00 am81 °FPassing clouds.5 mph39%30.12 "HgN/A
Weather by CustomWeather, © 2019

See weather overview